Location: Bush Observatory
(40.2653°N, 94.3194°W)
Time: 14:34:40
(UTC-05:00)

Iridium 13 - Visible Passes

Search period start: 22 July 2014 00:00
Search period end: 01 August 2014 00:00
Orbit: 776 x 779 km, 86.4° (Epoch: 22 July)

Date Brightness Start Highest point End Pass type
(mag) Time Alt. Az. Time Alt. Az. Time Alt. Az.
22 Jul 6.0 22:08:33 10° N 22:13:41 60° W 22:18:47 10° SSW visible
23 Jul 5.5 21:34:58 10° N 21:40:11 74° E 21:45:22 10° S visible
23 Jul 8.2 23:18:12 10° NW 23:20:10 12° WNW 23:22:08 10° W visible
24 Jul 7.7 22:43:01 10° NNW 22:47:00 23° W 22:50:58 10° SW visible
25 Jul 6.7 22:08:50 10° NNW 22:13:42 41° W 22:18:32 10° SSW visible
26 Jul 5.7 21:35:04 10° N 21:40:17 77° W 21:45:28 10° S visible
27 Jul 5.7 21:01:36 10° N 21:06:44 57° E 21:11:51 10° SSE visible
27 Jul 8.2 22:43:53 10° NW 22:46:54 16° WNW 22:49:55 10° WSW visible
28 Jul 7.4 22:09:16 10° NNW 22:13:40 29° W 22:18:04 10° SW visible
29 Jul 6.4 21:35:16 10° NNW 21:40:20 53° W 21:45:22 10° SSW visible
30 Jul 5.5 21:01:37 10° N 21:06:52 83° E 21:12:04 10° S visible
30 Jul 8.6 22:45:49 10° WNW 22:46:45 11° WNW 22:47:42 10° W visible
31 Jul 8.1 22:09:54 10° NW 22:13:36 20° W 22:17:18 10° SW visible
